www.pogodaiklimat.ru

Погода и климат >> Архив погоды >> Панама >> Сантьяго


ПОГОДА в Сантьяго

  • Прогноз погоды в Сантьяго
  • Монитор погоды в Сантьяго

АРХИВ ПОГОДЫ в Сантьяго

Время (UTC), дата Ветер
(напр.,м/с)
 
Видим.   Явления Облачность Т
(С)
Тd
(С)
f
(%)
Тe
(С)
Тes
(С)
Комфортность P
(гПа)
Po
(гПа)
Тmin
(С)
Tmax
(С)
R
(мм)
R24
(мм)
S
(см)
12 14.03 штиль 0 20 км ясно +21.0 +18.1 84 +25 +26 комфорт 1009.2 999.2
15 14.03 штиль 0 20 км ясно +30.4 +18.7 50 +36 +55 опасность
солнечного
удара
1010.3 1000.3
18 14.03 штиль 0 20 км ясно +36.2 +16.2 31 +39 +67 опасность
солнечного
удара
1009.1 999.1 +21.0 +36.4
21 14.03 С 6 20 км 1/1 600 м
[Cu hum]
+35.6 +15.7 31 +38 +40 очень
душно
1008.1 998.1
00 15.03 С 3 20 км ясно +29.6 +16.4 45 +33 +33 душно 1007.9 997.9 +21.0 +37.6
12 15.03 штиль 0 20 км ясно +21.0 +18.9 88 +25 +26 комфорт 1009.9 999.9
15 15.03 штиль 0 20 км ясно +31.7 +19.3 48 +37 +56 опасность
солнечного
удара
1011.6 1001.6
18 15.03 штиль 0 20 км 4/4 450 м
[Cu med, cong]
+35.2 +20.3 42 +42 +59 опасность
перегрева
1011.0 1001.0 +21.0 +36.2
21 15.03 С 9 20 км 3/3 600 м
[Cu med, cong]
+36.4 +19.8 38 +42 +42 опасность
перегрева
1008.5 998.5
00 16.03 С 6 20 км 1/1 450 м
[Cu med, cong]
+29.6 +19.6 55 +36 +36 очень
душно
1008.1 998.1 +21.0 +37.6
12 16.03 штиль 0 20 км O/0
[]
+23.4 +21.4 89 +32 +32 очень
душно
1009.6 999.6 +21.8 +37.6
15 16.03 В 4 20 км O/0
[]
+32.4 +21.2 52 +40 +49 очень
душно
1010.8 1000.8
18 16.03 С 6 20 км 3/3 600 м
[Cu med, cong]
+35.4 +19.5 39 +41 +46 опасность
перегрева
1010.1 1000.1 +21.8 +36.2
21 16.03 С 8 20 км 1/1 600 м
[Cu med, cong]
+35.6 +19.1 38 +40 +42 очень
душно
1008.3 998.3
00 17.03 С 4 20 км 1/1 450 м
[Cu med, cong]
+30.2 +18.9 51 +36 +36 очень
душно
1007.9 997.9 +21.8 +36.8
12 17.03 штиль 0 20 км ясно +24.2 +20.7 81 +30 +31 очень
душно
1009.1 999.1 +23.8 +36.8
15 17.03 СВ 4 20 км O/0
[]
+33.2 +18.6 42 +38 +47 очень
душно
1009.5 999.5
18 17.03 С 7 20 км 1/1 600 м
[Cu med, cong]
+35.8 +18.2 36 +40 +45 очень
душно
1009.0 999.0 +23.8 +36.4
21 17.03 С 9 20 км 1/1 600 м
[Cu med, cong]
+35.4 +18.8 38 +40 +41 очень
душно
1007.4 997.4
00 18.03 С 3 20 км 5/1 300 м
[Cu med, cong Ci fib]
+29.0 +20.2 59 +35 +35 очень
душно
1007.6 997.6 +25.0 +36.2
12 18.03 штиль 0 20 км 3/0
[Ci fib]
+22.4 +21.0 92 +29 +30 очень
душно
1011.6 1001.6
15 18.03 СВ 5 20 км o/0
[]
+32.9 +18.6 43 +38 +45 очень
душно
1009.7 999.7
18 18.03 С 8 20 км 6/3 450 м
[Cu hum Ci fib]
+35.2 +20.0 41 +41 +43 опасность
перегрева
1008.2 998.2 +25.0 +36.2
21 18.03 С 6 20 км 6/3 450 м
[Cu med, cong Ci fib]
+35.0 +19.4 40 +40 +42 очень
душно
1007.8 997.8
00 19.03 С 3 20 км 5/1 300 м
[Cu med, cong Ci fib]
+29.0 +20.2 59 +35 +35 очень
душно
1007.6 997.6 +25.0 +36.2
12 19.03 штиль 0 20 км 6/0
[Ci fib]
+23.2 +21.0 87 +31 +31 очень
душно
1010.9 1000.9 +22.4 +36.2
15 19.03 штиль 0 20 км 8/1 450 м
[Cu hum Ci fib]
+31.4 +20.7 53 +38 +53 опасность
солнечного
удара
1012.0 1002.0
18 19.03 штиль 0 20 км 6/6 300 м
[Cu med, cong]
+34.6 +20.6 44 +41 +53 опасность
перегрева
1011.6 1001.6
21 19.03 штиль 0 8000 м слаб. ливневой дождь 9/6 300 м
[Cu med, cong As trans]
+30.0 +23.2 67 +40 +42 очень
душно
1009.8 999.8
00 20.03 штиль 0 20 км осадки на расстоянии {ливн. осадки} 9/3 450 м
[Cu med, cong Ac As]
+28.0 +23.6 77 +38 +38 очень
душно
1010.6 1000.6 +22.4 +36.4 5
12 20.03 штиль 0 20 км ясно +20.8 +18.7 88 +25 +25 комфорт 1010.9 1000.9
15 20.03 штиль 0 20 км 6/3 450 м
[Cu hum Ci fib]
+30.2 +21.8 61 +39 +51 опасность
солнечного
удара
1012.3 1002.3
18 20.03 штиль 0 20 км 6/6 300 м
[Cu med, cong]
+33.6 +22.0 51 +42 +54 опасность
перегрева
1011.5 1001.5
21 20.03 С 4 10 км осадки на расстоянии 5/5 300 м
[Cu med, cong]
+35.2 +21.6 45 +43 +45 опасность
перегрева
1009.0 998.6
00 21.03 С 4 10 км 4/1 300 м
[Cu med, cong Ac lent]
+30.0 +21.3 60 +38 +38 очень
душно
1008.8 998.8

 

Местоположение метеостанции Сантьяго (Панама): широта 8.08 долгота -80.95 высота над уровнем моря 88 м.

В архиве по умолчанию представлена погода в Сантьяго за последнюю неделю. Архивные данные за месяц целиком и за предыдущие месяцы, начиная с января 2011 года, Вы можете получить, выбрав интересующий диапазон дат из раскрывающегося списка и нажав кнопку "Ввод!".


*Определитесь, кто Вы:
робот инопланетянин человек

Внимание! Время в таблицах - всемирное. Для получения местного времени необходимо прибавить поправку, которая равна -5 ч.

Смотрите также архив погоды в соседних городах и на ближайших метеорологических станциях:

Погода в Давиде (Панама) (165 км)
Погода в Пуэрто-Лимоне (Коста-Рика) (314 км)
Погода в Сан-Хосе аэропорту (Коста-Рика) (408 км)
Погода в Сан-Хосе (Коста-Рика) (416 км)
Погода в Апартадо (Колумбия) (469 км)
Погода на Острове Сан-Андрес (Колумбия) (507 км)
Погода в Блуфилдсе (Никарагуа) (534 км)
Погода в Кибдо (Колумбия) (546 км)
Погода в Либерии (Коста-Рика) (567 км)
Погода в Монтерии (Колумбия) (567 км)

Пояснения к столбцам:

Ветер - указаны скорость ветра в м/с - средняя за 10 мин, порывы в срок и между сроками (в фигурных скобках) и направление, откуда дует ветер: С - северный, СВ - северо-восточный, В - восточный, ЮВ - юго-восточный, Ю - южный, ЮЗ - юго-западный, З - западный, СЗ - северо-западный.
Видимость - горизонтальная дальность видимости в метрах или километрах. При видимости от 1 до 10 км при отсутствии осадков обычно наблюдается дымка, при ухудшении видимости до 1 км и менее - туман. В сухую погоду видимость может ухудшаться дымом, пылью или мглою.
Явления - указаны атмосферные явления, наблюдавшиеся в срок или в последний час перед сроком; фигурными скобками обозначены явления, наблюдавшиеся между сроками (за 1-3 часа до срока); квадратными скобками обозначены град или гололедные отложения с указанием их диаметра в мм.
Облачность - указаны через наклонную черту общая и нижняя облачность в баллах и высота нижней границы облаков в метрах; квадратными скобками обозначены формы облаков: Ci - перистые, Cs - перисто-слоистые, Cc - перисто-кучевые, Ac - высококучевые, As - высокослоистые, Sc - слоисто-кучевые, Ns - слоисто-дождевые, Cu - кучевые, Cb - кучево-дождевые. Подробнее классификацию облаков см. в Атласе облаков (PDF).
T - Температура воздуха - температура, измеренная на высоте 2 м над землей.
Td - Температура точки росы - температура, при понижении до которой содержащийся в воздухе водяной пар достигнет насыщения.
f - Относительная влажность воздуха - влажноcть воздуха, измеренная на высоте 2 м над землей.
Te - Эффективная температура - температура, которую ощущает одетый по сезону человек в тени. Характеристика душности погоды. При расчете учитывается влияние влажности воздуха и скорости ветра на теплоощущения человека.
Tes - Эффективная температура на солнце - температура, которую ощущает человек, с поправкой на солнечный нагрев. Характеристика знойности погоды. Зависит от высоты солнца над горизонтом, облачности и скорости ветра. Ночью, в пасмурную погоду, а также при ветре 12 м/с и более поправка равна нулю.
P - Атмосферное давление - приведенное к уровню моря атмосферное давление.
Po - Атмосферное давление - измеренное на уровне метеостанции атмосферное давление.
Tmin - Минимальная температура - минимум температуры воздуха на высоте 2 м над землей.
Tmax - Максимальная температура - максимум температуры воздуха на высоте 2 м над землей.
R - Количество осадков - Количество выпавших осадков за период времени, мм. При наведении курсора мыши на число - период времени, за который выпало указанное количество осадков.
R24 - Количество осадков - Количество выпавших осадков за 24 часа, мм.
S - Снежный покров - Высота снежного покрова, см. При наведении курсора мыши на число - состояние снежного покрова и степень покрытия местности в баллах.